Location: Unspecified
(35.6961°N, 0.0000°E)
Time: 04:15:27
(UTC+00:00)

S-56A Canister/Altair - Pass Details

Date: 01 June 2019
Orbit: 633 x 2499 km, 38.9° (Epoch: 16 June)

Event Time Altitude Azimuth Distance (km) Brightness Sun altitude
Rises 05:38:02 0° 281° (WNW) 4,142 10.8 8.9°
Reaches altitude 10° 05:40:58 10° 270° (W) 3,427 10.3 9.4°
Maximum altitude 05:48:19 29° 215° (SW) 2,808 10.1 10.8°
Drops below altitude 10° 05:58:12 10° 162° (SSE) 4,659 11.6 12.7°
Sets 06:03:04 0° 153° (SSE) 5,892 12.2 13.7°
